QPF
0.02 0.02 0.03 0.03 0.03 0.04 0.04 0.05 0.04 0.04 0.03 0.02 0.01 0.01 0.02 0.03 0.04 0.04 0.02 0.02 0.03 0.03 0.04 0.04 0.05 0.06 0.05 0.04 0.03 0.03 0.03 0.03 0.02 0.02 0.02 0.02 0.02 0.02 0.02 0.02 0.03 0.04 0.04
0.02 0.03 0.03 0.03 0.04 0.06 0.06 0.04 0.03 0.04 0.04 0.03 0.02 0.01 0.02 0.03 0.03 0.03 0.02 0.02 0.03 0.03 0.04 0.06 0.06 0.05 0.03 0.02 0.02 0.02 0.02 0.03 0.03 0.03 0.02 0.02 0.02 0.02 0.03 0.03 0.03 0.04 0.05
0.03 0.04 0.04 0.05 0.08 0.07 0.04 0.03 0.04 0.03 0.02 0.02 0.02 0.01 0.02 0.02 0.03 0.03 0.03 0.02 0.02 0.03 0.04 0.03 0.02 0.02 0.02 0.02 0.02 0.01 0.02 0.03 0.03 0.04 0.04 0.03 0.03 0.03 0.03 0.03 0.03 0.04 0.03
0.05 0.05 0.05 0.07 0.08 0.05 0.04 0.04 0.03 0.02 0.01 0.01 0.02 0.03 0.04 0.04 0.03 0.03 0.03 0.02 0.02 0.02 0.02 0.02 0.01 0.01 0.01 0.01 0.02 0.02 0.02 0.02 0.02 0.02 0.02 0.03 0.04 0.04 0.04 0.03 0.03 0.04 0.03
0.04 0.04 0.04 0.05 0.04 0.03 0.04 0.03 0.03 0.02 0.02 0.02 0.02 0.03 0.03 0.03 0.04 0.04 0.04 0.03 0.02 0.02 0.02 0.02 0.02 0.02 0.02 0.02 0.02 0.01 0.02 0.01 0.01 0.02 0.02 0.02 0.04 0.06 0.06 0.05 0.05 0.04 0.05
0.03 0.05 0.06 0.05 0.04 0.03 0.03 0.04 0.03 0.03 0.03 0.02 0.02 0.02 0.02 0.02 0.02 0.03 0.03 0.03 0.02 0.03 0.03 0.03 0.03 0.03 0.03 0.03 0.03 0.02 0.02 0.01 0.01 0.01 0.02 0.02 0.02 0.03 0.05 0.07 0.07 0.08 0.08
0.06 0.07 0.07 0.07 0.05 0.04 0.03 0.03 0.03 0.03 0.03 0.03 0.03 0.03 0.02 0.02 0.02 0.02 0.03 0.03 0.03 0.03 0.04 0.04 0.04 0.03 0.04 0.04 0.04 0.04 0.03 0.02 0.02 0.01 0.01 0.01 0.01 0.02 0.03 0.05 0.07 0.08 0.09
0.05 0.05 0.04 0.04 0.05 0.04 0.03 0.02 0.03 0.03 0.03 0.03 0.04 0.04 0.04 0.03 0.03 0.02 0.02 0.02 0.02 0.02 0.02 0.02 0.03 0.04 0.05 0.05 0.04 0.04 0.03 0.03 0.02 0.02 0.01 0.01 0.01 0.01 0.02 0.02 0.03 0.04 0.05
0.04 0.03 0.03 0.03 0.04 0.04 0.03 0.02 0.03 0.04 0.04 0.02 0.02 0.02 0.02 0.02 0.02 0.02 0.02 0.01 0.01 0.01 0.01 0.01 0.02 0.03 0.04 0.05 0.05 0.04 0.04 0.03 0.03 0.03 0.02 0.01 0.01 0.01 0.02 0.02 0.02 0.03 0.03
0.03 0.03 0.03 0.04 0.04 0.04 0.04 0.04 0.05 0.05 0.04 0.03 0.01 0.01 0.00 0.00 0.01 0.01 0.01 0.02 0.02 0.02 0.02 0.03 0.02 0.03 0.05 0.05 0.05 0.05 0.04 0.03 0.03 0.02 0.02 0.01 0.01 0.02 0.02 0.02 0.02 0.03 0.02
0.05 0.06 0.07 0.08 0.09 0.08 0.07 0.07 0.09 0.10 0.08 0.03 0.01 0.00 0.00 0.00 0.00 0.01 0.01 0.01 0.00 0.00 0.00 0.01 0.01 0.01 0.03 0.04 0.03 0.02 0.04 0.07 0.05 0.03 0.03 0.02 0.01 0.01 0.01 0.02 0.02 0.03 0.02
0.08 0.10 0.11 0.11 0.11 0.11 0.11 0.11 0.10 0.09 0.08 0.05 0.03 0.01 0.01 0.00 0.00 0.00 0.00 0.01 0.01 0.01 0.02 0.02 0.01 0.01 0.01 0.02 0.03 0.03 0.03 0.05 0.06 0.03 0.02 0.02 0.01 0.02 0.02 0.03 0.03 0.03 0.02
0.05 0.07 0.08 0.08 0.07 0.07 0.06 0.06 0.05 0.05 0.04 0.03 0.02 0.02 0.02 0.01 0.01 0.01 0.01 0.01 0.02 0.03 0.04 0.06 0.04 0.02 0.02 0.04 0.04 0.04 0.04 0.03 0.03 0.02 0.01 0.01 0.01 0.02 0.02 0.02 0.02 0.02 0.01
0.01 0.02 0.03 0.04 0.04 0.03 0.03 0.03 0.02 0.02 0.02 0.02 0.02 0.02 0.02 0.02 0.02 0.01 0.01 0.01 0.02 0.03 0.04 0.05 0.04 0.03 0.04 0.05 0.05 0.05 0.05 0.04 0.04 0.03 0.02 0.01 0.01 0.01 0.02 0.02 0.03 0.03 0.02
0.02 0.02 0.02 0.02 0.02 0.02 0.03 0.04 0.04 0.04 0.05 0.05 0.04 0.03 0.02 0.02 0.02 0.02 0.01 0.01 0.02 0.02 0.02 0.02 0.03 0.03 0.04 0.04 0.04 0.03 0.03 0.03 0.03 0.03 0.03 0.02 0.02 0.02 0.02 0.02 0.03 0.03 0.04
0.01 0.01 0.02 0.02 0.03 0.03 0.04 0.04 0.04 0.05 0.06 0.04 0.03 0.02 0.02 0.01 0.02 0.03 0.03 0.03 0.03 0.02 0.02 0.02 0.03 0.03 0.03 0.03 0.03 0.03 0.03 0.03 0.03 0.03 0.04 0.04 0.03 0.03 0.02 0.02 0.02 0.02 0.03
0.01 0.02 0.02 0.04 0.05 0.07 0.07 0.08 0.07 0.06 0.06 0.05 0.04 0.03 0.02 0.02 0.02 0.02 0.03 0.04 0.05 0.05 0.04 0.03 0.03 0.03 0.03 0.04 0.04 0.04 0.04 0.03 0.03 0.03 0.03 0.04 0.04 0.03 0.03 0.03 0.03 0.03 0.03
0.03 0.04 0.04 0.05 0.06 0.08 0.08 0.07 0.05 0.05 0.05 0.05 0.04 0.02 0.02 0.01 0.01 0.01 0.01 0.02 0.03 0.05 0.06 0.06 0.05 0.05 0.05 0.05 0.05 0.05 0.04 0.04 0.03 0.03 0.03 0.03 0.03 0.03 0.03 0.03 0.03 0.03 0.03
0.07 0.08 0.07 0.05 0.06 0.07 0.07 0.05 0.04 0.03 0.02 0.02 0.02 0.01 0.01 0.01 0.01 0.01 0.01 0.02 0.02 0.03 0.04 0.04 0.04 0.05 0.04 0.04 0.04 0.04 0.04 0.04 0.04 0.04 0.03 0.03 0.03 0.04 0.04 0.04 0.03 0.03 0.03
0.07 0.07 0.05 0.04 0.03 0.04 0.03 0.03 0.04 0.03 0.02 0.01 0.01 0.01 0.02 0.02 0.02 0.02 0.02 0.02 0.02 0.03 0.03 0.03 0.03 0.03 0.03 0.03 0.02 0.02 0.02 0.02 0.03 0.03 0.02 0.02 0.02 0.02 0.03 0.04 0.04 0.03 0.02
0.03 0.03 0.02 0.02 0.02 0.02 0.02 0.02 0.02 0.02 0.02 0.02 0.02 0.03 0.02 0.03 0.03 0.03 0.02 0.03 0.03 0.03 0.03 0.02 0.02 0.02 0.02 0.02 0.02 0.02 0.01 0.01 0.01 0.02 0.02 0.01 0.02 0.02 0.01 0.02 0.03 0.03 0.03
0.03 0.03 0.02 0.02 0.03 0.03 0.02 0.02 0.02 0.02 0.02 0.02 0.02 0.03 0.03 0.02 0.03 0.02 0.02 0.02 0.02 0.02 0.02 0.02 0.02 0.02 0.03 0.03 0.02 0.01 0.00 0.00 0.00 0.01 0.01 0.01 0.02 0.01 0.01 0.02 0.02 0.02 0.02
0.04 0.04 0.04 0.03 0.03 0.02 0.02 0.02 0.02 0.02 0.01 0.01 0.02 0.02 0.01 0.01 0.02 0.02 0.02 0.02 0.02 0.02 0.02 0.03 0.03 0.02 0.02 0.01 0.01 0.01 0.01 0.01 0.01 0.01 0.01 0.01 0.02 0.02 0.02 0.02 0.02 0.01 0.01
0.03 0.04 0.05 0.05 0.05 0.03 0.02 0.02 0.02 0.01 0.01 0.01 0.01 0.01 0.01 0.01 0.01 0.01 0.01 0.01 0.02 0.02 0.03 0.03 0.03 0.02 0.02 0.02 0.02 0.01 0.01 0.01 0.01 0.01 0.01 0.02 0.02 0.02 0.02 0.02 0.02 0.02 0.02
0.03 0.04 0.04 0.05 0.06 0.05 0.03 0.02 0.02 0.01 0.01 0.01 0.01 0.01 0.01 0.01 0.01 0.01 0.01 0.01 0.02 0.02 0.02 0.02 0.02 0.02 0.02 0.02 0.01 0.01 0.01 0.01 0.00 0.00 0.01 0.02 0.02 0.02 0.02 0.02 0.02 0.02 0.02
0.03 0.04 0.04 0.04 0.04 0.04 0.03 0.02 0.02 0.01 0.01 0.01 0.01 0.01 0.01 0.01 0.01 0.01 0.01 0.01 0.02 0.03 0.02 0.01 0.01 0.01 0.02 0.01 0.01 0.01 0.01 0.01 0.01 0.01 0.01 0.02 0.02 0.02 0.02 0.02 0.02 0.03 0.03
MSLP
1014.95 1014.70 1014.44 1014.17 1013.87 1013.55 1013.21 1012.87 1012.55 1012.28 1012.06 1011.89 1011.78 1011.70 1011.62 1011.54 1011.43 1011.29 1011.13 1010.94 1010.76 1010.58 1010.42 1010.28 1010.16 1010.03 1009.90 1009.75 1009.57 1009.39 1009.21 1009.04 1008.92 1008.86 1008.85 1008.90 1008.98 1009.07 1009.12 1009.10 1008.99 1008.78 1008.47
1015.46 1015.19 1014.92 1014.64 1014.36 1014.07 1013.78 1013.51 1013.26 1013.06 1012.91 1012.79 1012.71 1012.65 1012.58 1012.49 1012.37 1012.21 1012.02 1011.80 1011.56 1011.33 1011.10 1010.88 1010.66 1010.45 1010.23 1010.00 1009.77 1009.55 1009.34 1009.16 1009.03 1008.96 1008.94 1008.97 1009.01 1009.04 1009.03 1008.96 1008.78 1008.51 1008.15
1015.98 1015.72 1015.46 1015.20 1014.93 1014.68 1014.44 1014.22 1014.03 1013.88 1013.77 1013.68 1013.62 1013.55 1013.47 1013.37 1013.22 1013.04 1012.82 1012.57 1012.31 1012.04 1011.77 1011.50 1011.24 1010.98 1010.71 1010.44 1010.17 1009.91 1009.68 1009.47 1009.31 1009.19 1009.12 1009.08 1009.06 1009.02 1008.95 1008.81 1008.60 1008.31 1007.94
1016.47 1016.25 1016.03 1015.80 1015.58 1015.36 1015.17 1015.00 1014.86 1014.75 1014.66 1014.59 1014.52 1014.44 1014.34 1014.20 1014.03 1013.82 1013.57 1013.31 1013.03 1012.74 1012.46 1012.18 1011.89 1011.61 1011.32 1011.02 1010.72 1010.43 1010.15 1009.89 1009.66 1009.47 1009.31 1009.18 1009.07 1008.95 1008.82 1008.64 1008.42 1008.14 1007.81
1016.92 1016.75 1016.57 1016.39 1016.22 1016.06 1015.92 1015.80 1015.71 1015.63 1015.57 1015.50 1015.43 1015.33 1015.19 1015.03 1014.82 1014.58 1014.31 1014.03 1013.73 1013.44 1013.15 1012.86 1012.57 1012.28 1011.97 1011.65 1011.31 1010.97 1010.63 1010.29 1009.98 1009.69 1009.42 1009.19 1008.98 1008.79 1008.60 1008.41 1008.21 1007.98 1007.72
1017.29 1017.17 1017.04 1016.91 1016.79 1016.69 1016.60 1016.54 1016.49 1016.45 1016.41 1016.36 1016.28 1016.16 1016.00 1015.80 1015.57 1015.30 1015.01 1014.70 1014.40 1014.10 1013.80 1013.51 1013.20 1012.89 1012.56 1012.21 1011.84 1011.44 1011.02 1010.60 1010.19 1009.79 1009.42 1009.08 1008.78 1008.52 1008.30 1008.11 1007.94 1007.78 1007.61
1017.60 1017.50 1017.40 1017.31 1017.23 1017.18 1017.14 1017.13 1017.13 1017.13 1017.12 1017.08 1017.01 1016.89 1016.71 1016.49 1016.23 1015.93 1015.62 1015.29 1014.97 1014.65 1014.34 1014.03 1013.72 1013.39 1013.03 1012.64 1012.22 1011.77 1011.28 1010.78 1010.27 1009.77 1009.30 1008.87 1008.49 1008.18 1007.93 1007.75 1007.62 1007.52 1007.45
1017.85 1017.75 1017.65 1017.57 1017.52 1017.49 1017.49 1017.52 1017.57 1017.61 1017.63 1017.62 1017.56 1017.44 1017.26 1017.03 1016.74 1016.43 1016.09 1015.75 1015.41 1015.07 1014.74 1014.41 1014.08 1013.72 1013.34 1012.92 1012.46 1011.95 1011.41 1010.85 1010.27 1009.69 1009.14 1008.64 1008.20 1007.84 1007.57 1007.38 1007.27 1007.23 1007.23
1018.08 1017.95 1017.83 1017.73 1017.67 1017.65 1017.68 1017.73 1017.81 1017.88 1017.94 1017.95 1017.91 1017.80 1017.63 1017.39 1017.10 1016.78 1016.43 1016.07 1015.71 1015.35 1015.01 1014.66 1014.30 1013.93 1013.53 1013.08 1012.60 1012.07 1011.50 1010.90 1010.28 1009.67 1009.07 1008.51 1008.03 1007.62 1007.31 1007.10 1006.98 1006.94 1006.97
1018.33 1018.14 1017.97 1017.84 1017.76 1017.73 1017.75 1017.82 1017.91 1018.01 1018.09 1018.12 1018.10 1018.01 1017.84 1017.61 1017.33 1017.00 1016.64 1016.28 1015.91 1015.54 1015.18 1014.82 1014.46 1014.08 1013.67 1013.23 1012.75 1012.22 1011.65 1011.05 1010.43 1009.80 1009.18 1008.59 1008.06 1007.61 1007.25 1006.99 1006.82 1006.73 1006.72
1018.61 1018.36 1018.14 1017.97 1017.85 1017.80 1017.81 1017.87 1017.97 1018.07 1018.16 1018.21 1018.19 1018.11 1017.96 1017.74 1017.46 1017.14 1016.79 1016.43 1016.06 1015.70 1015.34 1014.98 1014.62 1014.25 1013.85 1013.43 1012.97 1012.48 1011.94 1011.37 1010.77 1010.15 1009.53 1008.93 1008.36 1007.86 1007.43 1007.08 1006.83 1006.65 1006.56
1018.92 1018.63 1018.37 1018.16 1018.01 1017.93 1017.92 1017.97 1018.05 1018.15 1018.23 1018.28 1018.26 1018.19 1018.04 1017.83 1017.56 1017.25 1016.92 1016.57 1016.21 1015.86 1015.52 1015.17 1014.83 1014.48 1014.12 1013.73 1013.31 1012.86 1012.38 1011.85 1011.29 1010.71 1010.10 1009.50 1008.91 1008.35 1007.84 1007.40 1007.02 1006.73 1006.51
1019.25 1018.94 1018.66 1018.42 1018.25 1018.15 1018.13 1018.16 1018.22 1018.29 1018.35 1018.38 1018.36 1018.27 1018.12 1017.91 1017.66 1017.37 1017.05 1016.72 1016.39 1016.06 1015.74 1015.42 1015.10 1014.78 1014.45 1014.10 1013.73 1013.33 1012.90 1012.43 1011.93 1011.39 1010.81 1010.21 1009.60 1009.00 1008.41 1007.87 1007.38 1006.95 1006.59
1019.58 1019.27 1018.98 1018.75 1018.57 1018.47 1018.42 1018.43 1018.46 1018.51 1018.54 1018.53 1018.48 1018.37 1018.21 1018.00 1017.75 1017.47 1017.17 1016.87 1016.57 1016.26 1015.97 1015.67 1015.37 1015.08 1014.77 1014.46 1014.13 1013.78 1013.41 1012.99 1012.54 1012.04 1011.50 1010.92 1010.31 1009.67 1009.04 1008.41 1007.82 1007.27 1006.78
1019.88 1019.58 1019.32 1019.09 1018.93 1018.82 1018.77 1018.75 1018.76 1018.76 1018.74 1018.69 1018.59 1018.45 1018.27 1018.04 1017.79 1017.52 1017.25 1016.96 1016.68 1016.41 1016.13 1015.85 1015.57 1015.29 1015.01 1014.71 1014.41 1014.09 1013.75 1013.38 1012.98 1012.53 1012.02 1011.48 1010.88 1010.25 1009.59 1008.92 1008.26 1007.63 1007.05
1020.11 1019.85 1019.61 1019.42 1019.27 1019.17 1019.10 1019.06 1019.03 1018.98 1018.91 1018.80 1018.65 1018.47 1018.25 1018.00 1017.74 1017.48 1017.21 1016.94 1016.68 1016.42 1016.15 1015.88 1015.61 1015.33 1015.05 1014.76 1014.46 1014.15 1013.84 1013.50 1013.13 1012.72 1012.27 1011.77 1011.21 1010.61 1009.97 1009.31 1008.64 1007.97 1007.34
1020.30 1020.07 1019.86 1019.69 1019.55 1019.45 1019.37 1019.30 1019.22 1019.12 1018.99 1018.82 1018.61 1018.38 1018.12 1017.85 1017.57 1017.30 1017.04 1016.78 1016.52 1016.27 1016.01 1015.74 1015.46 1015.17 1014.87 1014.57 1014.26 1013.95 1013.64 1013.32 1012.98 1012.61 1012.21 1011.76 1011.27 1010.72 1010.14 1009.52 1008.89 1008.25 1007.62
1020.44 1020.23 1020.05 1019.89 1019.76 1019.66 1019.56 1019.45 1019.33 1019.17 1018.97 1018.74 1018.47 1018.18 1017.88 1017.58 1017.28 1017.00 1016.73 1016.48 1016.23 1015.97 1015.71 1015.43 1015.13 1014.83 1014.51 1014.18 1013.86 1013.54 1013.23 1012.91 1012.59 1012.26 1011.90 1011.51 1011.09 1010.62 1010.11 1009.57 1009.01 1008.43 1007.86
1020.57 1020.37 1020.19 1020.04 1019.91 1019.79 1019.67 1019.52 1019.34 1019.13 1018.87 1018.58 1018.25 1017.91 1017.57 1017.24 1016.92 1016.63 1016.36 1016.10 1015.84 1015.58 1015.31 1015.02 1014.71 1014.39 1014.05 1013.70 1013.36 1013.02 1012.70 1012.38 1012.08 1011.77 1011.45 1011.12 1010.76 1010.37 1009.95 1009.50 1009.02 1008.53 1008.02
1020.68 1020.49 1020.31 1020.16 1020.02 1019.88 1019.72 1019.54 1019.32 1019.05 1018.74 1018.39 1018.02 1017.64 1017.26 1016.90 1016.57 1016.26 1015.98 1015.72 1015.46 1015.19 1014.92 1014.62 1014.30 1013.95 1013.60 1013.23 1012.87 1012.52 1012.19 1011.87 1011.57 1011.27 1010.98 1010.69 1010.38 1010.05 1009.70 1009.33 1008.93 1008.53 1008.10
1020.78 1020.59 1020.42 1020.26 1020.11 1019.95 1019.77 1019.55 1019.29 1018.98 1018.63 1018.24 1017.84 1017.43 1017.02 1016.64 1016.30 1015.97 1015.68 1015.41 1015.15 1014.88 1014.59 1014.29 1013.96 1013.61 1013.24 1012.87 1012.50 1012.14 1011.79 1011.47 1011.16 1010.87 1010.59 1010.31 1010.02 1009.73 1009.42 1009.10 1008.77 1008.43 1008.08
1020.85 1020.67 1020.50 1020.35 1020.19 1020.02 1019.82 1019.58 1019.30 1018.96 1018.59 1018.18 1017.74 1017.31 1016.90 1016.50 1016.14 1015.81 1015.51 1015.23 1014.95 1014.68 1014.39 1014.08 1013.75 1013.39 1013.02 1012.65 1012.27 1011.90 1011.54 1011.21 1010.89 1010.58 1010.28 1010.00 1009.71 1009.42 1009.12 1008.82 1008.52 1008.22 1007.91
1020.87 1020.71 1020.56 1020.41 1020.26 1020.09 1019.88 1019.64 1019.34 1018.99 1018.61 1018.19 1017.75 1017.31 1016.89 1016.48 1016.11 1015.77 1015.45 1015.16 1014.87 1014.58 1014.29 1013.97 1013.63 1013.28 1012.91 1012.53 1012.15 1011.77 1011.41 1011.05 1010.71 1010.37 1010.05 1009.73 1009.41 1009.09 1008.77 1008.46 1008.16 1007.87 1007.58
1020.81 1020.67 1020.55 1020.42 1020.29 1020.13 1019.93 1019.69 1019.40 1019.05 1018.67 1018.26 1017.82 1017.38 1016.95 1016.54 1016.16 1015.80 1015.47 1015.16 1014.85 1014.54 1014.23 1013.90 1013.56 1013.20 1012.82 1012.44 1012.05 1011.67 1011.28 1010.91 1010.53 1010.16 1009.79 1009.42 1009.05 1008.69 1008.33 1007.98 1007.65 1007.35 1007.07
1020.66 1020.56 1020.47 1020.37 1020.26 1020.11 1019.93 1019.70 1019.43 1019.10 1018.73 1018.32 1017.90 1017.46 1017.04 1016.62 1016.23 1015.85 1015.50 1015.15 1014.82 1014.48 1014.14 1013.79 1013.43 1013.05 1012.67 1012.28 1011.88 1011.48 1011.07 1010.67 1010.26 1009.84 1009.43 1009.00 1008.58 1008.16 1007.75 1007.36 1007.00 1006.67 1006.39
1020.43 1020.37 1020.31 1020.24 1020.15 1020.02 1019.86 1019.65 1019.39 1019.08 1018.73 1018.34 1017.93 1017.50 1017.08 1016.65 1016.24 1015.85 1015.46 1015.09 1014.72 1014.34 1013.97 1013.59 1013.20 1012.80 1012.39 1011.98 1011.56 1011.13 1010.70 1010.27 1009.82 1009.37 1008.90 1008.43 1007.95 1007.48 1007.02 1006.59 1006.20 1005.85 1005.56
Thickness
5750 5746 5743 5739 5736 5733 5730 5726 5724 5721 5719 5717 5715 5714 5712 5710 5709 5707 5705 5703 5701 5699 5697 5695 5693 5692 5690 5689 5688 5687 5686 5685 5684 5687 5688 5689 5690 5691 5693 5693 5694 5695 5696
5746 5742 5739 5735 5732 5728 5724 5722 5719 5716 5714 5712 5710 5708 5707 5705 5704 5702 5700 5698 5696 5694 5692 5690 5688 5688 5685 5684 5682 5682 5681 5680 5680 5680 5681 5682 5683 5685 5686 5687 5688 5690 5690
5741 5737 5733 5730 5726 5722 5720 5717 5714 5711 5709 5706 5705 5703 5701 5700 5698 5697 5695 5693 5691 5689 5687 5685 5684 5682 5680 5679 5677 5676 5676 5676 5675 5674 5675 5675 5676 5678 5678 5680 5681 5682 5684
5736 5732 5728 5725 5722 5719 5716 5713 5710 5707 5703 5701 5699 5697 5695 5694 5693 5691 5690 5688 5686 5684 5682 5681 5679 5677 5676 5674 5673 5672 5671 5670 5670 5669 5668 5668 5669 5670 5670 5671 5672 5674 5676
5730 5727 5724 5721 5718 5714 5711 5707 5704 5701 5699 5696 5694 5692 5690 5689 5688 5686 5684 5682 5680 5678 5677 5675 5675 5673 5672 5670 5670 5668 5666 5665 5664 5663 5662 5661 5662 5662 5662 5664 5664 5666 5668
5724 5721 5719 5715 5712 5708 5705 5701 5698 5695 5693 5690 5688 5686 5684 5684 5683 5681 5679 5676 5673 5671 5670 5669 5668 5667 5666 5665 5665 5664 5662 5660 5658 5656 5656 5655 5655 5655 5656 5657 5656 5657 5659
5718 5715 5712 5709 5706 5703 5700 5696 5692 5689 5686 5684 5682 5680 5678 5678 5677 5675 5672 5669 5666 5664 5662 5662 5662 5662 5660 5659 5659 5659 5657 5656 5654 5652 5651 5650 5650 5650 5649 5650 5650 5650 5652
5713 5709 5707 5704 5701 5697 5694 5690 5686 5683 5680 5678 5675 5673 5672 5671 5670 5668 5665 5661 5659 5657 5656 5655 5654 5653 5653 5652 5652 5652 5651 5650 5649 5647 5647 5647 5646 5646 5645 5644 5645 5645 5646
5707 5704 5702 5700 5696 5692 5689 5685 5682 5677 5674 5671 5669 5667 5665 5664 5663 5660 5658 5654 5652 5651 5650 5648 5647 5646 5646 5645 5644 5643 5644 5644 5643 5642 5642 5641 5641 5640 5640 5639 5638 5638 5639
5703 5701 5698 5695 5691 5687 5684 5680 5676 5672 5669 5665 5662 5660 5659 5657 5656 5654 5651 5648 5646 5645 5643 5642 5641 5640 5639 5637 5636 5636 5636 5636 5636 5636 5635 5635 5635 5634 5634 5633 5633 5632 5632
5700 5696 5693 5690 5687 5683 5679 5675 5670 5666 5662 5659 5655 5654 5652 5651 5650 5648 5645 5642 5640 5638 5637 5636 5635 5633 5632 5631 5630 5630 5629 5630 5629 5628 5628 5629 5629 5629 5628 5627 5627 5626 5625
5694 5690 5686 5684 5682 5679 5673 5669 5665 5661 5657 5653 5649 5648 5647 5645 5643 5641 5639 5636 5635 5632 5631 5629 5628 5627 5625 5625 5624 5624 5623 5623 5623 5622 5622 5622 5622 5622 5622 5621 5621 5620 5620
5687 5683 5680 5677 5674 5671 5667 5663 5659 5655 5651 5648 5645 5643 5641 5639 5637 5635 5633 5631 5629 5627 5625 5624 5622 5621 5620 5619 5618 5618 5617 5617 5616 5616 5616 5616 5616 5616 5615 5615 5615 5615 5615
5680 5677 5674 5670 5667 5664 5661 5658 5654 5650 5646 5643 5640 5638 5636 5634 5633 5630 5628 5626 5624 5621 5619 5618 5616 5615 5613 5612 5611 5611 5611 5610 5609 5609 5609 5610 5609 5609 5608 5608 5608 5608 5608
5675 5671 5668 5665 5662 5658 5655 5652 5649 5646 5643 5639 5636 5634 5631 5630 5629 5626 5623 5621 5619 5616 5613 5611 5610 5608 5607 5605 5604 5603 5603 5603 5602 5602 5603 5603 5603 5603 5602 5601 5600 5600 5599
5668 5665 5662 5659 5656 5652 5648 5645 5643 5641 5639 5636 5633 5630 5628 5626 5624 5622 5619 5616 5614 5611 5608 5606 5604 5601 5600 5598 5597 5596 5596 5596 5595 5596 5596 5596 5596 5596 5595 5594 5593 5592 5592
5663 5660 5657 5654 5651 5647 5643 5640 5637 5635 5633 5631 5628 5626 5623 5621 5619 5616 5613 5611 5608 5606 5603 5601 5598 5596 5594 5592 5590 5589 5589 5588 5588 5588 5588 5588 5589 5589 5588 5587 5586 5585 5584
5658 5655 5652 5649 5646 5642 5638 5635 5632 5630 5627 5625 5624 5621 5619 5616 5614 5611 5608 5606 5603 5600 5598 5596 5594 5591 5589 5586 5585 5583 5583 5582 5582 5582 5581 5581 5581 5581 5581 5580 5579 5577 5577
5652 5649 5647 5644 5640 5637 5633 5630 5628 5625 5622 5620 5618 5617 5614 5612 5609 5606 5603 5601 5599 5597 5594 5592 5590 5587 5585 5582 5580 5578 5576 5575 5575 5575 5575 5574 5574 5574 5574 5573 5572 5569 5568
5647 5645 5641 5638 5635 5632 5629 5626 5623 5620 5618 5616 5614 5612 5610 5608 5605 5602 5599 5597 5595 5592 5590 5588 5586 5583 5580 5578 5575 5573 5571 5569 5569 5568 5568 5567 5567 5566 5566 5566 5565 5563 5562
5641 5638 5636 5632 5629 5627 5624 5622 5620 5617 5615 5613 5611 5609 5606 5604 5602 5599 5596 5593 5591 5589 5586 5584 5582 5578 5576 5573 5570 5568 5566 5564 5563 5562 5561 5561 5560 5559 5559 5558 5558 5557 5555
5636 5633 5630 5627 5624 5622 5619 5617 5615 5613 5611 5609 5607 5604 5601 5599 5597 5594 5592 5590 5587 5585 5582 5580 5577 5574 5571 5569 5566 5563 5561 5559 5557 5556 5555 5554 5553 5552 5552 5551 5551 5550 5549
5630 5627 5624 5622 5619 5617 5614 5612 5610 5608 5607 5605 5602 5599 5596 5594 5592 5590 5588 5586 5583 5581 5578 5575 5572 5569 5567 5564 5561 5559 5556 5554 5552 5550 5548 5548 5547 5546 5546 5545 5544 5544 5543
5625 5622 5620 5617 5614 5612 5610 5608 5606 5604 5602 5600 5597 5595 5592 5590 5588 5586 5584 5582 5579 5576 5573 5570 5567 5565 5562 5559 5557 5554 5552 5549 5547 5545 5543 5542 5541 5540 5539 5539 5539 5538 5538
5619 5617 5615 5612 5610 5607 5605 5602 5600 5599 5597 5595 5592 5590 5588 5585 5583 5581 5579 5576 5574 5572 5569 5566 5564 5561 5558 5556 5553 5551 5548 5545 5542 5540 5538 5536 5535 5534 5534 5534 5534 5533 5533
5613 5611 5609 5607 5604 5601 5599 5596 5594 5593 5591 5589 5586 5584 5582 5580 5578 5576 5573 5571 5569 5567 5565 5562 5560 5557 5555 5552 5550 5547 5544 5541 5538 5536 5533 5532 5531 5530 5529 5529 5529 5529 5528